Location: ?ernice
(48.8383°N, 14.3803°E)
Time: 16:48:14
(UTC+00:00)

Cosmos 2228 Rocket - Pass Details

Date: 23 May 2024
Orbit: 616 x 648 km, 82.5° (Epoch: 13 June)

Event Time Altitude Azimuth Distance (km) Brightness Sun altitude
Exits shadow 00:05:22 38° 227° (SW) 961 3.6 -19.0°
Maximum altitude 00:06:46 55° 283° (WNW) 760 3.4 -18.9°
Drops below altitude 10° 00:11:12 10° 2° (N) 2,035 6.8 -18.7°
Sets 00:13:31 0° 7° (N) 2,954 8.1 -18.6°
